Tracking 29495 objects as of 7-Sep-2024
HD Live streaming from Space Station
objects crossing your sky now

TACSAT-6

Track TACSAT-6 now!
10-day predictions
TACSAT-6 is classified as:


NORAD ID: 39473
Int'l Code: 2013-072M
Perigee: 429.2 km
Apogee: 692.8 km
Inclination: 120.5 °
Period: 95.7 minutes
Semi major axis: 6932 km
RCS: Unknown
Launch date: December 6, 2013
Source: United States (US)
Launch site: AIR FORCE WESTERN TEST RANGE (AFWTR)

TACSAT-6 is a military satellite that will test advanced nanosatellite communications technologies.
Your satellite tracking list
Your tracking list is empty




NASA's NSSDC Master Catalog

Two Line Element Set (TLE):
1 39473U 13072M   24250.43833589  .00032208  00000-0  15432-2 0  9997
2 39473 120.4854 107.5439 0190144  58.2369 303.7073 15.04222880 20112
Source of the keplerian elements: AFSPC